ATLAS D DEB, 2329

Orbit data source: Space-Track

ATLAS D DEB, 2329 is space debris in LEO originally from a launch on Thu, 14 Jul 1966 UTC launched from the Air Force Western Test Range (AFWTR). Debris objects in space refer to the collection of defunct objects orbiting the Earth. Examples of debris include non-operational satellites, rocket bodies, and fragments generated from explosions, collisions, or faulty payload assembly.

Loading next visibility...
Identifier
2329, 1966-063D
Orbit
LEO
Country
Flag of USUS
Related business
Manufacturer
Goodyear
Mission
Spacecraft
Bus & Motor
CONTAINER, Unknown motor
Mass
2 kg wet, 2 kg dry
Launch date (UTC)
1966-07-14 (59 years ago)
Launch vehicle
Unknown
Launch site
Air Force Western Test Range (AFWTR)
Object type
Payload
Rocket body
Debris
Shape & HBR
Half Cyl, 0.3 m
Radar Cross Section
0.210 m², Medium (>0.1 m² and < 1m²)

Expand to show TLE details & history
Last TLE update: 14 hours ago

TLE from 14 hours ago
0 ATLAS D DEB
1 02329U 66063D   25242.11674334  .00000997  00000-0  56455-3 0  9994
2 02329 144.2882  65.0848 0021730 308.2560 162.1526 13.92095703981678
Epoch: 2025-08-30T02:48Z
TLE epoch observation values (Epoch: 2025-08-30T02:48:06.624Z)
Latitude
33.28058°
Longitude
-70.22676°
Altitude
936.855 km
Speed
7.381 km/s
True Right ascension
20h 41m 25s
True Declination
33° 07' 37"
Sunlit
Object was in full shadow at epoch
Visualization orbit readout
Latitude
Unknown
Longitude
Unknown
Altitude
Unknown
Speed
Unknown
Apparent Right ascension
Unknown
Apparent Declination
Unknown
Sunlit
N/A
Visualization observer readout
Local Sidereal Time
08:04:21
Azimuth
Unknown
Elevation
Unknown
Doppler factor
Unknown
Orbital elements
Apogee altitude
940.119 km
Perigee altitude
908.383 km
Semi-major axis
7,302.388 km
Eccentricity
0.00217
Inclination
144.2882°
RAAN
65.0848°
Arg. of periapsis
308.256°
True anomaly
162.22872°
Mean anomaly
162.1526°
Eccentric anomaly
162.19068°
Mean motion
3.47813 °/min
Orbital period
103.5 mins
BSTAR
0.00056455
Loading maneuver chart data...
Computing Atmospheric mass density...
Loading historical data...
Loading historical data...
Loading historical data...
Loading historical data...
Loading historical data...
Loading historical data...
Loading historical data...

Documentation

Showing up to 5 results
|